Weather History for Connaught Airport, Ireland

Change the Weather History Date:

Wednesday, January 16, 2013

  Actual Average Record
Temperature  
Mean Temperature 37 °F -  
Max Temperature 41 °F - - ()
Min Temperature 33 °F - - ()
Degree Days  
Heating Degree Days 28    
Moisture  
Dew Point 39 °F    
Average Humidity 100    
Maximum Humidity 100    
Minimum Humidity 97    
Precipitation  
Precipitation 0.12 in - - ()
Sea Level Pressure  
Sea Level Pressure 29.74 in    
Wind  
Wind Speed 7 mph ()    
Max Wind Speed 12 mph    
Max Gust Speed -    
Visibility 0.1 miles    
Events Fog , Rain    
T = Trace of Precipitation, MM = Missing Value Source: Averaged Metar Reports

Daily Weather History Graph

Daily Weather History Graph

Search for Another Location

Airport:

Trip Planner

Search our weather history database for the weather conditions in past years. The results will help you decide how hot, cold, wet, or windy it might be!

Date:

Astronomy

Jan. 16, 2013 Rise Set
Actual Time 8:44 AM GMT 4:46 PM GMT
Civil Twilight 8:02 AM GMT 5:27 PM GMT
Nautical Twilight 7:18 AM GMT 6:12 PM GMT
Astronomical Twilight 6:36 AM GMT 6:54 PM GMT
Moon 10:18 AM GMT (1/16) 11:24 PM GMT (1/16)
Length of Visible Light 9h 24m
Length of Day
8h 02m
Waxing Crescent, 26% of the Moon is Illuminated
Jan 16
Waxing Crescent
Jan 18
First Quarter
Jan 27
Full
Feb 3
Last Quarter
Feb 10
New

Hourly Weather History & Observations

Time (GMT) Temp. Windchill Dew Point Humidity Pressure Visibility Wind Dir Wind Speed Gust Speed Precip Events Conditions
12:00 AM 34 °F - 33 °F 97% 29.71 in - ESE 11.2 mph - -  
6:00 AM 36 °F - 36 °F 98% 29.71 in 0 mi SE 11.2 mph - - Rain Light Rain
8:00 AM 35.6 °F 28.6 °F 35.6 °F 100% 29.68 in 0.2 mi SSE 9.2 mph - N/A Fog , Rain Light Rain
8:30 AM 35.6 °F 27.5 °F 35.6 °F 100% 29.68 in 0.2 mi SSE 11.5 mph - N/A Fog , Rain Light Rain
9:00 AM 37.4 °F 30.8 °F 37.4 °F 100% 29.71 in 0.1 mi SSE 9.2 mph - N/A Fog , Rain Light Rain
10:00 AM 37.4 °F 31.4 °F 37.4 °F 100% 29.74 in 0.1 mi SSE 8.1 mph - N/A Rain Light Rain
10:30 AM 37.4 °F 30.8 °F 37.4 °F 100% 29.71 in 0.1 mi SSE 9.2 mph - N/A Rain Light Rain
11:00 AM 37.4 °F 30.3 °F 37.4 °F 100% 29.71 in 0.1 mi SSE 10.4 mph - N/A Rain Light Rain
11:30 AM 37.4 °F 30.8 °F 37.4 °F 100% 29.71 in 0.1 mi SSE 9.2 mph - N/A Fog , Rain Light Rain
12:00 PM 38 °F - 38 °F 100% 29.77 in 0 mi SSE 8.9 mph - - Fog Heavy Fog
12:00 PM 39.2 °F 33.6 °F 39.2 °F 100% 29.74 in 0.1 mi SSE 8.1 mph - N/A Fog Fog
12:30 PM 39.2 °F 34.2 °F 39.2 °F 100% 29.74 in 0.1 mi SSE 6.9 mph - N/A Fog , Rain Light Rain
1:00 PM 39.2 °F 34.2 °F 39.2 °F 100% 29.74 in 0.2 mi SSE 6.9 mph - N/A Fog , Rain Light Rain
1:30 PM 39.2 °F 34.2 °F 39.2 °F 100% 29.74 in 0.2 mi South 6.9 mph - N/A Fog Light Drizzle
2:00 PM 39.2 °F 34.2 °F 39.2 °F 100% 29.74 in 0.3 mi South 6.9 mph - N/A Fog Light Drizzle
2:30 PM 41.0 °F 35.8 °F 41.0 °F 100% 29.74 in 0.2 mi SSE 8.1 mph - N/A Fog Light Drizzle
3:00 PM 41.0 °F 37.1 °F 41.0 °F 100% 29.74 in 0.2 mi South 5.8 mph - N/A Fog Light Drizzle
3:30 PM 41.0 °F 39.0 °F 41.0 °F 100% 29.74 in 0.2 mi SSE 3.5 mph - N/A Fog Light Drizzle
4:00 PM 41.0 °F - 41.0 °F 100% 29.77 in 0.2 mi South 2.3 mph - N/A Fog Fog
4:30 PM 41.0 °F - 41.0 °F 100% 29.77 in 0.2 mi Calm Calm - N/A Fog Light Drizzle
5:00 PM 41.0 °F - 41.0 °F 100% 29.77 in 0.2 mi SW 2.3 mph - N/A Fog Fog
6:00 PM 41 °F - 41 °F 99% 29.83 in 0 mi Calm Calm - - Fog Heavy Fog